TimeCST,TemperatureF,Dew PointF,Humidity,Sea Level PressureIn,VisibilityMPH,Wind Direction,Wind SpeedMPH,Gust SpeedMPH,PrecipitationIn,Events,Conditions,WindDirDegrees,DateUTC
12:00 AM,78,78,98,29.87,12,NNW,3.5,,,,Partly Cloudy,330,2012-10-07 06:00:00
3:00 AM,77,76,94,29.82,12,Calm,Calm,,,,Scattered Clouds,,2012-10-07 09:00:00
5:00 AM,77.0,75.2,94,29.83,6.2,WSW,2.3,-,N/A,,Mostly Cloudy,250,2012-10-07 11:00:00
6:00 AM,76,75,97,29.86,12,West,4.6,,,,Partly Cloudy,270,2012-10-07 12:00:00
6:00 AM,75.2,75.2,100,29.86,6.2,West,4.6,-,N/A,,Mostly Cloudy,270,2012-10-07 12:00:00
7:00 AM,77.0,77.0,100,29.86,6.2,WNW,4.6,-,N/A,,Mostly Cloudy,300,2012-10-07 13:00:00
7:30 AM,77.0,77.0,100,29.86,6.2,WNW,8.1,-,N/A,,Mostly Cloudy,300,2012-10-07 13:30:00
8:00 AM,78.8,77.0,94,29.89,6.2,NW,8.1,-,N/A,,Mostly Cloudy,310,2012-10-07 14:00:00
9:00 AM,82,78,84,29.91,11,NW,6.9,,,,Mostly Cloudy,310,2012-10-07 15:00:00
9:00 AM,82.4,78.8,89,29.90,6.2,NW,6.9,-,N/A,,Mostly Cloudy,310,2012-10-07 15:00:00
10:00 AM,82.4,77.0,84,29.90,6.2,NW,5.8,-,N/A,Rain,Light Rain Showers,320,2012-10-07 16:00:00
11:00 AM,82.4,73.4,74,29.89,6.2,ENE,9.2,-,N/A,,Scattered Clouds,70,2012-10-07 17:00:00
12:00 PM,82,74,72,29.88,11,Calm,Calm,,,Rain,Light Rain Showers,,2012-10-07 18:00:00
12:00 PM,82.4,75.2,79,29.87,6.2,Calm,Calm,-,N/A,Rain,Light Rain Showers,0,2012-10-07 18:00:00
12:45 PM,-9999,-9999,N/A,29.86,6.2,NW,8.1,-,N/A,Thunderstorm,Thunderstorm,310,2012-10-07 18:45:00
1:00 PM,80.6,77.0,89,29.85,6.2,NW,6.9,-,N/A,Thunderstorm,Thunderstorm,310,2012-10-07 19:00:00
2:00 PM,78.8,75.2,89,29.83,6.2,West,4.6,-,N/A,,Mostly Cloudy,270,2012-10-07 20:00:00
3:00 PM,82,75,75,29.81,14,NW,3.5,,,,Partly Cloudy,320,2012-10-07 21:00:00
3:00 PM,82.4,75.2,79,29.81,6.2,NW,3.5,-,N/A,,Mostly Cloudy,320,2012-10-07 21:00:00
4:00 PM,84.2,77.0,79,29.80,6.2,NW,3.5,-,N/A,,Mostly Cloudy,320,2012-10-07 22:00:00
5:00 PM,84.2,75.2,74,29.82,6.2,NE,4.6,-,N/A,,Mostly Cloudy,50,2012-10-07 23:00:00
6:00 PM,82,77,81,29.87,12,NNE,4.6,,,,Partly Cloudy,20,2012-10-08 00:00:00
6:00 PM,82.4,77.0,84,29.86,6.2,NNE,4.6,-,N/A,,Mostly Cloudy,20,2012-10-08 00:00:00